This demonstration page uses our WeatherBlox Daily Observations layout. Learn more.

39.01783, -85.05884

Hourly Observations for July 7, 2019

Temp ( °F °C ) Dew Point ( °F °C ) Humidity (%) Winds ( mph kmh ) Pressure ( in mb ) Visibility ( mi km ) Precip ( " mm )
12:52 am 00:52 Mostly Cloudy 76 24.4 69 20.6 79 79 NNW 3 6 29.91 1013 10 16.09344 0 0
1:52 am 01:52 Mostly Cloudy 73 22.8 69 20.6 87 87 W 3 6 29.91 1013 10 16.09344 0 0
2:52 am 02:52 Mostly Cloudy 73 22.8 69 20.6 87 87 N 5 7 29.88 1012 10 16.09344 0 0
3:52 am 03:52 Partly Cloudy 73 22.8 69 20.6 87 87 Calm 29.88 1012 8 12.874752 0 0
4:52 am 04:52 Partly Cloudy 73 22.8 69 20.6 87 87 N 3 6 29.88 1012 7 11.265408 0 0
5:52 am 05:52 Partly Cloudy 73 22.8 69 20.6 87 87 NNW 6 9 29.88 1012 8 12.874752 0 0
6:52 am 06:52 Mostly Cloudy with Mist and Fog 72 22.2 69 20.6 91 91 NNW 5 7 29.91 1013 5 8.04672 0 0
7:52 am 07:52 Mostly Cloudy with Mist and Fog 75 23.9 71 21.7 88 88 Calm 29.91 1013 6 9.656064 0 0
8:52 am 08:52 Partly Cloudy 78 25.6 70 21.1 76 76 E 5 7 29.91 1013 10 16.09344 0 0
9:52 am 09:52 Partly Cloudy 81 27.2 70 21.1 69 69 Calm 29.91 1013 10 16.09344 0 0
11:52 am 11:52 Mostly Cloudy 86 30 72 22.2 63 63 VRB 6 9 29.91 1013 10 16.09344 0 0
12:52 pm 12:52 Mostly Cloudy 88 31.1 70 21.1 55 55 NNE 8 13 29.91 1013 10 16.09344 0 0
1:52 pm 13:52 Mostly Cloudy 88 31.1 71 21.7 57 57 WNW 8 13 29.88 1012 10 16.09344 0 0
2:52 pm 14:52 Partly Cloudy 89 31.7 72 22.2 57 57 N 14 22 29.88 1012 10 16.09344 0 0
3:52 pm 15:52 Partly Cloudy 90 32.2 71 21.7 54 54 N 9 15 29.88 1012 10 16.09344 0 0
4:52 pm 16:52 Partly Cloudy 90 32.2 69 20.6 50 50 N 12 19 29.85 1011 10 16.09344 0 0
5:52 pm 17:52 Partly Cloudy 90 32.2 68 20 48 48 N 12 19 29.85 1011 10 16.09344 0 0
6:52 pm 18:52 Partly Cloudy 87 30.6 69 20.6 55 55 N 10 17 29.85 1011 10 16.09344 0 0
7:52 pm 19:52 Partly Cloudy 85 29.4 70 21.1 61 61 N 14 22 29.85 1011 10 16.09344 0 0
8:52 pm 20:52 Partly Cloudy 82 27.8 68 20 63 63 N 14 22 29.88 1012 10 16.09344 0 0
9:52 pm 21:52 Mostly Clear 79 26.1 67 19.4 67 67 N 14 22 29.88 1012 10 16.09344 0 0
10:52 pm 22:52 Mostly Clear 77 25 67 19.4 71 71 NNE 12 19 29.91 1013 10 16.09344 0 0
11:52 pm 23:52 Mostly Clear 76 24.4 67 19.4 74 74 NNE 13 20 29.91 1013 10 16.09344 0 0

Powered by AerisWeather